Location: Bothwell
(42.3833°S, 147.0000°E)
Time: 20:00:25
(UTC+11:00)

CUBESAT XI-V - Pass Details

Date: 25 September 2022
Orbit: 666 x 689 km, 98.1° (Epoch: 25 November)

Event Time Altitude Azimuth Distance (km) Brightness Sun altitude
Rises 03:14:34 0° 172° (S) 3,081 ? -29.3°
Reaches altitude 10° 03:16:51 10° 177° (S) 2,161 ? -29.0°
Enters shadow 03:19:26 31° 192° (SSW) 1,226 ? -28.6°
